Zagreb Pleso, Croatia

4:19 AM CET on December 13, 2017 (GMT +0100)
Pleso

Weather History for LDZA - December, 2012

Change the Weather History Date:

Wednesday, December 5, 2012

  Actual Average Record
Temperature  
Mean Temperature 35 °F -  
Max Temperature 42 °F - - ()
Min Temperature 28 °F - - ()
Degree Days  
Heating Degree Days 30    
Moisture  
Dew Point 32 °F    
Average Humidity 93    
Maximum Humidity 100    
Minimum Humidity 74    
Precipitation  
Precipitation 0.00 in - - ()
Sea Level Pressure  
Sea Level Pressure 29.62 in    
Wind  
Wind Speed 5 mph ()    
Max Wind Speed 9 mph    
Max Gust Speed -    
Visibility 4.8 miles    
Events Fog , Rain    
T = Trace of Precipitation, MM = Missing Value Source: Averaged Metar Reports

Daily Weather History Graph

Daily Weather History Graph

Search for Another Location

Airport or City:

Trip Planner

Search our weather history database for the weather conditions in past years. The results will help you decide how hot, cold, wet, or windy it might be!

Date:

Astronomy

Dec. 05, 2012 Rise Set
Actual Time 7:20 AM CET 4:11 PM CET
Civil Twilight 6:46 AM CET 4:45 PM CET
Nautical Twilight 6:09 AM CET 5:23 PM CET
Astronomical Twilight 5:33 AM CET 5:59 PM CET
Moon 10:57 PM CET (12/5) 11:22 AM CET (12/5)
Length of Visible Light 9h 58m
Length of Day
8h 50m
Waning Gibbous, 62% of the Moon is Illuminated
Dec 5
Waning Gibbous
Dec 6
Last Quarter
Dec 13
New
Dec 20
First Quarter
Dec 28
Full

Hourly Weather History & Observations

Time (CET) Temp. Windchill Dew Point Humidity Pressure Visibility Wind Dir Wind Speed Gust Speed Precip Events Conditions
12:00 AM 32.0 °F 24.2 °F 32.0 °F 100% 29.53 in 3.7 mi WSW 9.2 mph - N/A Rain Light Rain
12:30 AM 33.8 °F 26.4 °F 32.0 °F 93% 29.53 in 6.2 mi West 9.2 mph - N/A Rain Light Rain
1:00 AM 33 °F - 32 °F 94% 29.57 in 6 mi WSW 6.7 mph - - Rain Light Rain
1:00 AM 33.8 °F 27.7 °F 32.0 °F 93% 29.53 in 6.2 mi WSW 6.9 mph - N/A Rain Light Rain
1:30 AM 33.8 °F 29.6 °F 32.0 °F 93% 29.53 in 6.2 mi WSW 4.6 mph - N/A   Partly Cloudy
2:00 AM 33.8 °F 28.6 °F 32.0 °F 93% 29.53 in 6.2 mi SW 5.8 mph - N/A   Partly Cloudy
2:30 AM 33.8 °F 29.6 °F 32.0 °F 93% 29.56 in 6.2 mi SW 4.6 mph - N/A   Scattered Clouds
3:00 AM 33.8 °F 29.6 °F 32.0 °F 93% 29.53 in 6.2 mi South 4.6 mph - N/A   Scattered Clouds
3:30 AM 33.8 °F - 32.0 °F 93% 29.53 in 6.2 mi Variable 2.3 mph - N/A   Partly Cloudy
4:00 AM 33 °F - 32 °F 92% 29.57 in 6 mi Calm Calm - -   Partly Cloudy
4:00 AM 32.0 °F - 32.0 °F 100% 29.53 in 6.2 mi Calm Calm - N/A   Partly Cloudy
4:30 AM 32.0 °F - 32.0 °F 100% 29.53 in 6.2 mi Variable 1.2 mph - N/A Rain Light Rain
5:00 AM 32.0 °F - 32.0 °F 100% 29.56 in 6.2 mi West 2.3 mph - N/A Rain Light Rain
5:30 AM 32.0 °F - 32.0 °F 100% 29.56 in 6.2 mi Variable 1.2 mph - N/A Rain Light Rain
6:00 AM 32.0 °F 28.7 °F 32.0 °F 100% 29.56 in 6.2 mi SE 3.5 mph - N/A Rain Light Rain
6:30 AM 32.0 °F 27.5 °F 32.0 °F 100% 29.59 in 6.2 mi NW 4.6 mph - N/A   Scattered Clouds
7:00 AM 33 °F - 32 °F 93% 29.62 in 6 mi SSW 2.2 mph - - Rain Light Rain
7:00 AM 32.0 °F - 32.0 °F 100% 29.59 in 6.2 mi Variable 1.2 mph - N/A   Overcast
7:30 AM 33.8 °F 30.8 °F 32.0 °F 93% 29.59 in 4.3 mi SSW 3.5 mph - N/A   Mostly Cloudy
8:00 AM 33.8 °F 30.8 °F 32.0 °F 93% 29.62 in 3.1 mi SSW 3.5 mph - N/A   Scattered Clouds
8:30 AM 33.8 °F 30.8 °F 32.0 °F 93% 29.62 in 4.3 mi SW 3.5 mph - N/A   Mostly Cloudy
9:00 AM 33.8 °F 30.8 °F 33.8 °F 100% 29.62 in 5.0 mi WSW 3.5 mph - N/A   Mostly Cloudy
9:30 AM 35.6 °F 31.7 °F 33.8 °F 93% 29.62 in 6.2 mi WSW 4.6 mph - N/A   Scattered Clouds
10:00 AM 37 °F - 35 °F 91% 29.65 in 6 mi SW 2.2 mph - -   Scattered Clouds
10:00 AM 37.4 °F - 35.6 °F 93% 29.62 in 6.2 mi Variable 2.3 mph - N/A   Partly Cloudy
10:30 AM 39.2 °F 34.2 °F 35.6 °F 87% 29.62 in 6.2 mi West 6.9 mph - N/A   Partly Cloudy
11:00 AM 39.2 °F 35.0 °F 35.6 °F 87% 29.62 in 6.2 mi West 5.8 mph - N/A   Partly Cloudy
11:30 AM 39.2 °F 33.0 °F 35.6 °F 87% 29.65 in 6.2 mi West 9.2 mph - N/A   Partly Cloudy
12:00 PM 41.0 °F 36.4 °F 35.6 °F 81% 29.62 in 6.2 mi West 6.9 mph - N/A   Partly Cloudy
12:30 PM 41.0 °F 37.1 °F 37.4 °F 87% 29.65 in 6.2 mi West 5.8 mph - N/A   Partly Cloudy
1:00 PM 42 °F - 36 °F 74% 29.66 in 12 mi West 6.7 mph - -   Scattered Clouds
1:00 PM 41.0 °F 36.4 °F 37.4 °F 87% 29.62 in 6.2 mi West 6.9 mph - N/A   Partly Cloudy
1:30 PM 42.8 °F 38.6 °F 35.6 °F 76% 29.62 in 6.2 mi West 6.9 mph - N/A   Partly Cloudy
2:00 PM 42.8 °F 39.3 °F 35.6 °F 76% 29.62 in 6.2 mi West 5.8 mph - N/A   Partly Cloudy
4:00 PM 37 °F - 33 °F 81% 29.66 in 9 mi West 6.7 mph - -   Scattered Clouds
4:00 PM 37.4 °F 32.8 °F 33.8 °F 87% 29.62 in 6.2 mi West 5.8 mph - N/A   Partly Cloudy
4:30 PM 35.6 °F 31.7 °F 32.0 °F 87% 29.65 in - WSW 4.6 mph - N/A   Clear
5:00 PM 33.8 °F 28.6 °F 32.0 °F 93% 29.65 in - WSW 5.8 mph - N/A   Clear
5:30 PM 32.0 °F 27.5 °F 30.2 °F 93% 29.65 in - WSW 4.6 mph - N/A   Clear
6:00 PM 32.0 °F 26.4 °F 30.2 °F 93% 29.65 in - WSW 5.8 mph - N/A   Clear
6:30 PM 30.2 °F 24.3 °F 30.2 °F 100% 29.68 in 5.0 mi WSW 5.8 mph - N/A   Unknown
7:00 PM 30 °F - 29 °F 96% 29.71 in 2 mi WSW 4.5 mph - -   Mist
7:00 PM 30.2 °F 25.4 °F 30.2 °F 100% 29.68 in 2.5 mi WSW 4.6 mph - N/A   Partly Cloudy
7:30 PM 32.0 °F 26.4 °F 30.2 °F 93% 29.68 in 0.2 mi WSW 5.8 mph - N/A Fog Patches of Fog
8:00 PM 32.0 °F 27.5 °F 30.2 °F 93% 29.68 in 0.9 mi WSW 4.6 mph - N/A Fog Patches of Fog
8:30 PM 30.2 °F 25.4 °F 30.2 °F 100% 29.71 in 0.6 mi WSW 4.6 mph - N/A Fog Patches of Fog
9:00 PM 30.2 °F 26.7 °F 30.2 °F 100% 29.71 in 1.6 mi West 3.5 mph - N/A   Mostly Cloudy
9:30 PM 30.2 °F 26.7 °F 30.2 °F 100% 29.71 in 0.1 mi NW 3.5 mph - N/A Fog Light Freezing Fog
10:00 PM 31 °F - 30 °F 93% 29.75 in 0 mi Calm Calm - - Fog Heavy Fog
10:00 PM 30.2 °F - 30.2 °F 100% 29.71 in 0.1 mi Variable 1.2 mph - N/A Fog Light Freezing Fog
10:30 PM 30.2 °F - 30.2 °F 100% 29.71 in 0.1 mi Calm Calm - N/A Fog Light Freezing Fog
11:00 PM 28.4 °F - 28.4 °F 100% 29.71 in 0.1 mi Variable 1.2 mph - N/A Fog Light Freezing Fog
11:30 PM 28.4 °F 24.6 °F 28.4 °F 100% 29.74 in 0.2 mi ESE 3.5 mph - N/A Fog Light Freezing Fog